Latest Coastal Weather Observations for Kingfish B

IDV60701

Issued at 10:21 pm EST Thursday 5 May 2016 (issued every 10 minutes, with the page automatically refreshed every 10 minutes)

About coastal observations | Map of coastal stations | Coastal observations for VIC | Marine services | Other Formats
Station Details ID: 400139 Name: KINGFISH B (PLATFORM) Lat: -38.60 Lon: 148.19 Height: 31.4 m
Data from the previous 72 hours. | See also: Recent months for locations in Victoria
Date/Time
EST
Temp

°C
Wind Pressure Rain
since 9am
mm
Weather Cloud Vis
km
Sea
Height
m
Swell
Dir
 
Speed
knots
Gust
knots
hPa Trend Height
m
Period
s
Dir
05/09:10pm 17.3 - 9 11 1014.3 - - - - - - - - -
05/09:00pm 17.4 N 10 11 1014.4 - - - - - - - - -
05/08:50pm 17.4 N 9 10 1014.4 - - - - - - - - -
05/08:40pm 17.4 NNE 10 12 1014.5 - - - - - - - - -
05/08:30pm 17.3 NNE 12 14 1014.5 - - - - - - - - -
05/08:20pm 17.4 NNE 12 14 1014.6 - - - - - - - - -
05/08:10pm 17.3 NNE 12 15 1014.7 - - - - - - - - -
05/07:50pm 17.3 N 12 15 1014.6 - - - - - - - - -
05/07:40pm 17.4 NNE 11 13 1014.7 - - - - - - - - -
05/07:30pm 17.5 NNE 11 13 1014.6 - - - - - - - - -
05/07:20pm 17.5 NNE 11 14 1014.4 - - - - - - - - -
05/07:10pm 17.5 NNE 10 12 1014.4 - - - - - - - - -
05/07:00pm 17.5 NNE 11 12 1014.3 - - - - - - - - -
05/06:50pm 17.4 NNE 11 13 1014.3 - - - - - - - - -
05/06:40pm 17.4 NNE 11 13 1014.4 - - - - - - - - -
05/06:30pm 17.4 NNE 10 11 1014.4 - - - - - - - - -
05/06:20pm 17.4 NNE 10 12 1014.2 - - - - - - - - -
05/06:10pm 17.4 NNE 11 12 1014.1 - - - - - - - - -
05/06:00pm 17.4 NNE 11 12 1014.1 - - - - - - - - -
05/05:50pm 17.3 NNE 11 13 1014.0 - - - - - - - - -
05/05:40pm 17.4 NNE 12 14 1013.8 - - - - - - - - -
05/05:30pm 17.4 NNE 11 14 1013.9 - - - - - - - - -
05/05:20pm 17.3 NNE 11 13 1013.8 - - - - - - - - -
05/05:10pm 17.3 NNE 11 13 1013.8 - - - - - - - - -
05/05:00pm 17.3 NNE 12 14 1013.7 - - - - - - - - -
05/04:50pm 17.4 NNE 13 15 1013.5 - - - - - - - - -
05/04:40pm 17.3 NE 13 15 1013.4 - - - - - - - - -
05/04:30pm 17.2 NE 13 15 1013.4 - - - - - - - - -
05/04:20pm 17.3 NE 12 14 1013.3 - - - - - - - - -
05/04:10pm 17.4 NE 14 16 1013.3 - - - - - - - - -
05/04:00pm 17.5 NE 12 15 1013.5 - - - - - - - - -
05/03:50pm 17.5 NE 12 14 1013.5 - - - - - - - - -
05/03:40pm 17.5 NE 11 13 1013.4 - - - - - - - - -
05/03:30pm 17.5 NE 11 13 1013.5 - - - - - - - - -
05/03:20pm 17.6 NE 10 12 1013.7 - - - - - - - - -
05/03:10pm 17.4 NE 11 13 1013.7 - - - - - - - - -
05/03:00pm 17.4 NE 10 12 1013.8 - - - - - - - - -
05/02:50pm 17.4 NNE 9 10 1014.0 - - - - - - - - -
05/02:40pm 17.4 NNE 9 11 1014.1 - - - - - - - - -
05/02:30pm 17.6 NNE 10 11 1014.0 - - - - - - - - -
05/02:20pm 17.3 NNE 10 11 1014.0 - - - - - - - - -
05/02:10pm 17.5 NNE 9 11 1014.0 - - - - - - - - -
05/02:00pm 17.5 NNE 10 11 1014.0 - - - - - - - - -
05/01:50pm 17.2 NNE 9 11 1014.0 - - - - - - - - -
05/01:40pm 17.1 NNE 10 11 1014.0 - - - - - - - - -
05/01:30pm 17.0 N 10 12 1014.0 - - - - - - - - -
05/01:20pm 16.9 N 9 11 1014.2 - - - - - - - - -
05/01:10pm 16.9 N 9 10 1014.2 - - - - - - - - -
05/01:00pm 16.9 N 9 11 1014.2 - - - - - - - - -
05/12:50pm 16.9 N 9 11 1014.4 - - - - - - - - -
05/12:40pm 16.9 N 10 11 1014.5 - - - - - - - - -
05/12:30pm 16.9 N 10 12 1014.4 - - - - - - - - -
05/12:20pm 17.1 N 10 12 1014.5 - - - - - - - - -
05/12:10pm 17.2 N 9 11 1014.6 - - - - - - - - -
05/12:00pm 17.1 N 9 10 1014.8 - - - - - - - - -
05/11:50am 16.8 N 9 12 1015.0 - - - - - - - - -
05/11:40am 16.8 N 10 12 1015.2 - - - - - - - - -
05/11:30am 16.7 N 9 11 1015.3 - - - - - - - - -
05/11:20am 16.7 N 10 13 1015.4 - - - - - - - - -
05/11:10am 16.7 N 10 13 1015.7 - - - - - - - - -
05/11:00am 16.6 N 10 12 1015.8 - - - - - - - - -
05/10:50am 16.6 - 11 13 1015.9 - - - - - - - - -
05/10:40am 16.6 - 10 13 1016.1 - - - - - - - - -
05/10:30am 16.5 - 11 13 1016.3 - - - - - - - - -
05/10:20am 16.5 - 10 13 1016.4 - - - - - - - - -
05/10:10am 16.6 - 12 13 1016.5 - - - - - - - - -
05/10:00am 17.0 N 11 13 1016.7 - - - - - - - - -
05/09:50am 17.3 N 11 13 1016.8 - - - - - - - - -
05/09:40am 17.2 N 10 13 1016.9 - - - - - - - - -
05/09:30am 17.1 N 12 14 1016.9 - - - - - - - - -
05/09:20am 17.3 N 12 14 1017.1 - - - - - - - - -
05/09:10am 17.4 N 11 13 1017.1 - - - - - - - - -
05/08:50am 17.2 N 11 13 1017.1 - - - - - - - - -
05/08:40am 17.6 N 11 12 1017.3 - - - - - - - - -
05/08:30am 17.6 N 10 12 1017.4 - - - - - - - - -
05/08:20am 17.7 N 9 11 1017.4 - - - - - - - - -
05/08:10am 17.6 NNW 10 12 1017.4 - - - - - - - - -
05/08:00am 17.6 N 10 12 1017.5 - - - - - - - - -
05/07:50am 17.6 NNW 9 11 1017.6 - - - - - - - - -
05/07:40am 17.8 NNW 8 11 1017.6 - - - - - - - - -
05/07:30am 17.6 NNW 9 11 1017.6 - - - - - - - - -
05/07:20am 17.4 NNW 9 12 1017.6 - - - - - - - - -
05/07:10am 17.3 NNW 10 12 1017.5 - - - - - - - - -
05/07:00am 17.1 NW 11 12 1017.5 - - - - - - - - -
05/06:50am 17.0 NNW 11 13 1017.4 - - - - - - - - -
05/06:40am 16.7 NNW 12 14 1017.3 - - - - - - - - -
05/06:30am 16.4 NNW 13 15 1017.2 - - - - - - - - -
05/06:20am 16.1 NNW 12 15 1017.2 - - - - - - - - -
05/06:10am 16.0 NNW 12 15 1017.1 - - - - - - - - -
05/06:00am 15.9 NNW 12 15 1017.1 - - - - - - - - -
05/05:50am 15.7 NNW 13 16 1017.0 - - - - - - - - -
05/05:40am 15.8 NNW 12 15 1017.0 - - - - - - - - -
05/05:30am 15.6 NNW 12 15 1016.9 - - - - - - - - -
05/05:20am 15.5 NNW 12 15 1016.5 - - - - - - - - -
05/05:10am 15.5 N 13 15 1016.7 - - - - - - - - -
05/05:00am 15.7 N 12 14 1016.6 - - - - - - - - -
05/04:50am 15.9 NNW 11 14 1016.6 - - - - - - - - -
05/04:40am 15.8 NNW 12 15 1016.5 - - - - - - - - -
05/04:30am 15.8 NNW 12 15 1016.5 - - - - - - - - -
05/04:20am 16.0 NNW 11 14 1016.4 - - - - - - - - -
05/04:10am 16.0 NNW 12 14 1016.4 - - - - - - - - -
05/04:00am 16.0 NNW 13 15 1016.4 - - - - - - - - -
05/03:50am 16.0 NNW 13 15 1016.3 - - - - - - - - -
05/03:40am 16.0 NNW 14 16 1016.2 - - - - - - - - -
05/03:30am 16.0 NNW 14 17 1016.1 - - - - - - - - -
05/03:20am 16.0 NNW 13 15 1016.2 - - - - - - - - -
05/03:10am 16.1 NW 14 16 1016.3 - - - - - - - - -
05/03:00am 16.1 NW 14 16 1016.2 - - - - - - - - -
05/02:50am 16.1 NNW 14 16 1016.3 - - - - - - - - -
05/02:40am 16.0 NNW 13 16 1016.2 - - - - - - - - -
05/02:30am 16.0 NNW 13 16 1016.3 - - - - - - - - -
05/02:20am 16.0 NNW 13 15 1016.3 - - - - - - - - -
05/02:10am 16.0 NW 13 15 1016.3 - - - - - - - - -
05/02:00am 16.0 NNW 12 15 1016.3 - - - - - - - - -
05/01:50am 15.9 NNW 11 14 1016.4 - - - - - - - - -
05/01:40am 15.7 N 10 12 1016.5 - - - - - - - - -
05/01:30am 15.9 N 10 12 1016.5 - - - - - - - - -
05/01:20am 15.9 NNW 10 14 1016.5 - - - - - - - - -
05/01:10am 15.8 N 11 14 1016.5 - - - - - - - - -
05/01:00am 16.1 N 9 13 1016.6 - - - - - - - - -
05/12:50am 16.1 NNW 8 12 1016.6 - - - - - - - - -
05/12:40am 16.0 NW 9 12 1016.5 - - - - - - - - -
05/12:30am 16.0 NW 10 12 1016.5 - - - - - - - - -
05/12:20am 15.8 NNW 8 12 1016.5 - - - - - - - - -
05/12:10am 15.7 N 9 14 1016.6 - - - - - - - - -
05/12:00am 15.6 N 10 12 1016.6 - - - - - - - - -
 
Date/Time
EST
Temp

°C
Wind Pressure Rain
since 9am
mm
Weather Cloud Vis
km
Sea
Height
m
Swell
Dir
 
Speed
knots
Gust
knots
hPa Trend Height
m
Period
s
Dir
04/11:50pm 15.5 N 10 12 1016.7 - - - - - - - - -
04/11:40pm 15.7 N 10 12 1016.8 - - - - - - - - -
04/11:30pm 16.0 N 10 12 1016.9 - - - - - - - - -
04/11:20pm 16.0 NNW 10 13 1016.9 - - - - - - - - -
04/11:10pm 16.0 NNW 10 13 1016.8 - - - - - - - - -
04/11:00pm 16.0 NNW 12 14 1016.6 - - - - - - - - -
04/10:50pm 16.0 NW 13 15 1016.6 - - - - - - - - -
04/10:40pm 16.3 NW 13 16 1016.0 - - - - - - - - -
04/10:30pm 16.7 NW 12 15 1016.9 - - - - - - - - -
04/10:20pm 16.7 NW 11 14 1016.9 - - - - - - - - -
04/10:10pm 16.7 NW 11 13 1016.9 - - - - - - - - -
04/10:00pm 16.7 NW 11 13 1017.1 - - - - - - - - -
04/09:50pm 16.6 NW 11 14 1017.1 - - - - - - - - -
04/09:40pm 16.6 NW 11 15 1016.9 - - - - - - - - -
04/09:30pm 16.6 NW 10 13 1016.8 - - - - - - - - -
04/09:20pm 16.5 NW 10 12 1016.9 - - - - - - - - -
04/09:10pm 16.3 NNW 11 13 1017.0 - - - - - - - - -
04/09:00pm 16.2 NNW 10 14 1017.0 - - - - - - - - -
04/08:50pm 16.2 N 9 12 1016.9 - - - - - - - - -
04/08:40pm 16.3 NNW 9 11 1016.7 - - - - - - - - -
04/08:30pm 16.3 NNW 7 10 1016.5 - - - - - - - - -
04/08:20pm 16.1 NNW 8 10 1016.6 - - - - - - - - -
04/08:10pm 16.1 N 8 10 1017.0 - - - - - - - - -
04/08:00pm 16.2 NNW 7 10 1016.9 - - - - - - - - -
04/07:50pm 16.0 NNW 7 10 1016.8 - - - - - - - - -
04/07:40pm 15.9 N 7 9 1016.8 - - - - - - - - -
04/07:30pm 15.9 N 7 10 1016.7 - - - - - - - - -
04/07:20pm 15.8 N 6 9 1016.6 - - - - - - - - -
04/07:10pm 15.8 N 4 8 1016.5 - - - - - - - - -
04/07:00pm 15.8 N 2 5 1016.3 - - - - - - - - -
04/06:50pm 16.0 N 1 3 1016.2 - - - - - - - - -
04/06:40pm 16.5 NNW 1 2 1016.1 - - - - - - - - -
04/06:30pm 16.6 CALM 0 1 1016.1 - - - - - - - - -
04/06:20pm 16.5 CALM 0 1 1015.9 - - - - - - - - -
04/06:00pm 16.4 CALM 0 0 1015.5 - - - - - - - - -
04/05:50pm 16.2 CALM 0 0 1015.5 - - - - - - - - -
04/05:40pm 15.6 CALM 0 1 1015.4 - - - - - - - - -
04/05:30pm 15.1 CALM 0 1 1015.3 - - - - - - - - -
04/05:20pm 15.0 WSW 2 4 1015.0 - - - - - - - - -
04/05:10pm 15.0 CALM 0 3 1014.9 - - - - - - - - -
04/05:00pm 15.1 SW 2 4 1014.8 - - - - - - - - -
04/04:50pm 15.0 SW 2 4 1014.7 - - - - - - - - -
04/04:40pm 15.1 SW 2 3 1014.5 - - - - - - - - -
04/04:30pm 15.1 SW 3 4 1014.2 - - - - - - - - -
04/04:20pm 15.1 SSW 3 4 1014.2 - - - - - - - - -
04/04:10pm 15.1 SW 1 3 1013.9 - - - - - - - - -
04/04:00pm 15.2 CALM 0 1 1013.9 - - - - - - - - -
04/03:50pm 15.2 CALM 0 0 1014.1 - - - - - - - - -
04/03:40pm 15.1 CALM 0 0 1014.0 - - - - - - - - -
04/03:30pm 15.1 CALM 0 1 1013.9 - - - - - - - - -
04/03:20pm 15.2 CALM 0 1 1014.0 - - - - - - - - -
04/03:10pm 15.3 WNW 1 3 1014.1 - - - - - - - - -
04/03:00pm 15.3 WNW 1 3 1014.1 - - - - - - - - -
04/02:50pm 15.2 W 3 5 1013.9 - - - - - - - - -
04/02:40pm 15.3 WNW 3 5 1013.7 - - - - - - - - -
04/02:30pm 15.2 W 3 4 1013.8 - - - - - - - - -
04/02:20pm 15.2 W 3 5 1013.7 - - - - - - - - -
04/02:10pm 15.2 W 4 7 1013.7 - - - - - - - - -
04/02:00pm 15.1 W 5 9 1013.5 - - - - - - - - -
04/01:50pm 15.0 W 6 9 1013.3 - - - - - - - - -
04/01:40pm 15.2 W 7 9 1013.4 - - - - - - - - -
04/01:30pm 15.1 W 8 10 1013.1 - - - - - - - - -
04/01:20pm 15.0 WSW 9 12 1012.8 - - - - - - - - -
04/01:10pm 14.8 W 9 11 1013.2 - - - - - - - - -
04/01:00pm 14.7 W 11 13 1012.9 - - - - - - - - -
04/12:50pm 14.7 W 11 14 1012.8 - - - - - - - - -
04/12:40pm 14.6 W 11 13 1012.9 - - - - - - - - -
04/12:30pm 14.5 W 12 15 1012.8 - - - - - - - - -
04/12:20pm 14.5 W 12 16 1013.1 - - - - - - - - -
04/12:10pm 14.5 W 12 16 1013.0 - - - - - - - - -
04/12:00pm 14.6 W 13 16 1013.0 - - - - - - - - -
04/11:50am 14.8 W 13 16 1013.1 - - - - - - - - -
04/11:40am 14.7 WSW 14 17 1012.9 - - - - - - - - -
04/11:30am 14.7 WSW 15 18 1013.2 - - - - - - - - -
04/11:20am 14.8 WSW 15 19 1013.1 - - - - - - - - -
04/11:10am 15.0 WSW 16 18 1013.1 - - - - - - - - -
04/11:00am 15.2 WSW 16 20 1013.1 - - - - - - - - -
04/10:50am 15.0 W 16 20 1013.4 - - - - - - - - -
04/10:40am 14.9 WSW 17 22 1013.2 - - - - - - - - -
04/10:30am 14.8 W 17 21 1013.1 - - - - - - - - -
04/10:20am 14.9 W 18 24 1013.3 - - - - - - - - -
04/10:10am 14.8 W 18 21 1013.2 - - - - - - - - -
04/10:00am 14.7 W 19 23 1013.2 - - - - - - - - -
04/09:50am 14.8 W 20 23 1012.8 - - - - - - - - -
04/09:40am 14.8 W 19 22 1012.8 - - - - - - - - -
04/09:30am 14.6 W 19 21 1012.8 - - - - - - - - -
04/09:20am 14.5 W 19 23 1012.7 - - - - - - - - -
04/09:10am 14.5 W 19 23 1012.6 - - - - - - - - -
04/09:00am 14.7 W 20 23 1012.4 - - - - - - - - -
04/08:50am 14.8 W 20 24 1012.4 - - - - - - - - -
04/08:40am 14.8 W 21 24 1012.4 - - - - - - - - -
04/08:30am 14.8 W 20 24 1012.1 - - - - - - - - -
04/08:20am 14.8 W 20 25 1012.0 - - - - - - - - -
04/08:10am 14.8 W 20 23 1011.9 - - - - - - - - -
04/08:00am 14.7 W 19 22 1012.0 - - - - - - - - -
04/07:50am 14.7 W 18 23 1012.2 - - - - - - - - -
04/07:40am 14.6 W 17 21 1012.0 - - - - - - - - -
04/07:30am 14.4 W 17 22 1011.9 - - - - - - - - -
04/07:20am 14.1 W 17 20 1011.7 - - - - - - - - -
04/07:10am 14.2 W 17 21 1011.5 - - - - - - - - -
04/06:50am 14.1 W 19 23 1011.3 - - - - - - - - -
04/06:40am 14.1 W 20 25 1011.1 - - - - - - - - -
04/06:30am 14.1 WSW 21 25 1010.9 - - - - - - - - -
04/06:20am 14.3 W 19 24 1010.5 - - - - - - - - -
04/06:10am 14.2 W 21 24 1010.2 - - - - - - - - -
04/06:00am 14.2 W 19 26 1010.2 - - - - - - - - -
04/05:50am 14.3 W 20 24 1010.0 - - - - - - - - -
04/05:40am 14.2 W 19 24 1009.5 - - - - - - - - -
04/05:30am 14.2 W 20 25 1009.0 - - - - - - - - -
04/05:20am 14.1 W 20 25 1008.8 - - - - - - - - -
04/05:10am 14.0 W 20 24 1008.6 - - - - - - - - -
04/05:00am 14.0 W 20 24 1008.4 - - - - - - - - -
04/04:50am 14.1 W 20 24 1008.3 - - - - - - - - -
04/04:40am 14.2 W 22 25 1008.6 - - - - - - - - -
04/04:30am 14.2 WSW 21 26 1008.4 - - - - - - - - -
04/04:20am 14.2 WSW 22 25 1008.2 - - - - - - - - -
04/04:10am 14.2 WSW 22 27 1008.0 - - - - - - - - -
04/04:00am 14.2 WSW 23 29 1007.5 - - - - - - - - -
04/03:50am 14.1 WSW 25 30 1007.3 - - - - - - - - -
04/03:40am 14.2 WSW 25 30 1006.9 - - - - - - - - -
04/03:30am 14.2 WSW 24 28 1007.1 - - - - - - - - -
04/03:20am 14.2 WSW 25 31 1007.0 - - - - - - - - -
04/03:10am 14.3 WSW 25 28 1006.9 - - - - - - - - -
04/03:00am 14.3 WSW 25 31 1006.7 - - - - - - - - -
04/02:50am 14.3 WSW 25 29 1006.6 - - - - - - - - -
04/02:40am 14.4 WSW 22 27 1006.5 - - - - - - - - -
04/02:30am 14.4 WSW 23 28 1006.5 - - - - - - - - -
04/02:20am 14.6 WSW 27 31 1006.0 - - - - - - - - -
04/02:10am 14.6 WSW 29 34 1005.7 - - - - - - - - -
04/02:00am 14.6 WSW 30 37 1005.3 - - - - - - - - -
04/01:50am 14.7 WSW 29 36 1005.3 - - - - - - - - -
04/01:40am 14.8 WSW 32 39 1005.0 - - - - - - - - -
04/01:30am 14.9 WSW 32 38 1004.9 - - - - - - - - -
04/01:20am 15.0 WSW 30 37 1005.1 - - - - - - - - -
04/01:10am 15.1 WSW 27 34 1005.2 - - - - - - - - -
04/01:00am 15.1 WSW 23 33 1005.2 - - - - - - - - -
04/12:50am 15.1 WSW 22 28 1005.1 - - - - - - - - -
04/12:40am 15.1 WSW 26 30 1004.7 - - - - - - - - -
04/12:30am 15.1 WSW 26 32 1004.7 - - - - - - - - -
04/12:20am 15.1 WSW 28 33 1004.2 - - - - - - - - -
04/12:10am 15.0 WSW 28 33 1004.2 - - - - - - - - -
04/12:00am 15.1 WSW 29 33 1003.9 - - - - - - - - -
 
Date/Time
EST
Temp

°C
Wind Pressure Rain
since 9am
mm
Weather Cloud Vis
km
Sea
Height
m
Swell
Dir
 
Speed
knots
Gust
knots
hPa Trend Height
m
Period
s
Dir
03/11:50pm 15.1 WSW 30 37 1003.8 - - - - - - - - -
03/11:40pm 15.1 WSW 29 36 1003.9 - - - - - - - - -
03/11:30pm 15.1 WSW 28 35 1004.0 - - - - - - - - -
03/11:20pm 15.2 WSW 28 33 1003.9 - - - - - - - - -
03/11:10pm 15.2 WSW 29 35 1004.0 - - - - - - - - -
03/11:00pm 15.1 WSW 30 36 1003.6 - - - - - - - - -
03/10:50pm 15.1 WSW 28 34 1003.5 - - - - - - - - -
03/10:40pm 15.2 WSW 27 31 1003.7 - - - - - - - - -
03/10:30pm 15.1 WSW 29 34 1003.7 - - - - - - - - -
03/10:20pm 15.2 WSW 29 35 1003.5 - - - - - - - - -
03/10:10pm 15.1 WSW 26 34 1003.6 - - - - - - - - -
03/10:00pm 15.2 WSW 25 29 1003.8 - - - - - - - - -
03/09:50pm 15.2 WSW 23 29 1003.6 - - - - - - - - -
03/09:40pm 15.2 WSW 24 30 1003.6 - - - - - - - - -
03/09:30pm 15.1 WSW 23 27 1003.6 - - - - - - - - -
03/09:20pm 15.1 WSW 26 30 1003.3 - - - - - - - - -
03/09:10pm 15.0 WSW 25 29 1003.3 - - - - - - - - -
03/09:00pm 14.9 WSW 25 32 1003.0 - - - - - - - - -
03/08:50pm 14.9 WSW 31 38 1002.6 - - - - - - - - -
03/08:40pm 15.0 WSW 30 37 1002.8 - - - - - - - - -
03/08:30pm 15.0 WSW 29 35 1002.9 - - - - - - - - -
03/08:20pm 15.2 WSW 27 32 1003.0 - - - - - - - - -
03/08:10pm 15.1 WSW 28 33 1002.6 - - - - - - - - -
03/08:00pm 15.1 WSW 27 33 1002.6 - - - - - - - - -
03/07:50pm 15.0 WSW 29 37 1002.4 - - - - - - - - -
03/07:40pm 14.8 WSW 25 32 1002.6 - - - - - - - - -
03/07:30pm 14.8 WSW 23 29 1002.7 - - - - - - - - -
03/07:20pm 14.8 WSW 24 29 1002.7 - - - - - - - - -
03/07:10pm 14.8 WSW 24 29 1002.4 - - - - - - - - -
03/07:00pm 14.9 WSW 23 28 1002.2 - - - - - - - - -
03/06:50pm 14.7 WSW 27 34 1001.9 - - - - - - - - -
03/06:40pm 14.6 WSW 29 38 1001.7 - - - - - - - - -
03/06:30pm 14.7 WSW 30 37 1001.8 - - - - - - - - -
03/06:20pm 14.7 WSW 31 39 1001.5 - - - - - - - - -
03/06:10pm 14.7 SW 33 39 1001.0 - - - - - - - - -
03/06:00pm 14.9 SW 32 38 1000.7 - - - - - - - - -
03/05:50pm 15.0 SW 36 44 1000.3 - - - - - - - - -
03/05:40pm 15.6 SW 36 43 999.7 - - - - - - - - -
03/05:30pm 15.7 WSW 35 43 999.4 - - - - - - - - -
03/05:20pm 16.1 SW 34 43 999.5 - - - - - - - - -
03/05:10pm 16.8 SW 34 41 998.9 - - - - - - - - -
03/04:50pm 19.8 W 25 44 997.4 - - - - - - - - -
03/04:40pm 20.0 W 25 31 996.7 - - - - - - - - -
03/04:30pm 20.1 W 30 38 996.3 - - - - - - - - -
03/04:20pm 19.7 W 27 35 996.3 - - - - - - - - -
03/04:10pm 19.8 WNW 23 28 996.6 - - - - - - - - -
03/04:00pm 19.9 WNW 24 30 996.4 - - - - - - - - -
03/03:50pm 19.8 NW 20 26 996.3 - - - - - - - - -
03/03:40pm 20.2 NW 20 24 996.3 - - - - - - - - -
03/03:30pm 20.3 NW 19 25 996.3 - - - - - - - - -
03/03:20pm 20.4 NW 20 24 996.3 - - - - - - - - -
03/03:10pm 20.5 NW 20 23 996.2 - - - - - - - - -
03/03:00pm 20.5 WNW 21 25 995.9 - - - - - - - - -
03/02:50pm 20.4 NW 22 25 995.7 - - - - - - - - -
03/02:40pm 20.1 NW 21 25 995.5 - - - - - - - - -
03/02:30pm 20.1 NW 20 23 995.6 - - - - - - - - -
03/02:20pm 20.1 NW 22 26 995.6 - - - - - - - - -
03/02:10pm 20.0 NW 23 27 995.6 - - - - - - - - -
03/02:00pm 19.6 NW 20 26 995.6 - - - - - - - - -
03/01:50pm 19.3 NW 19 21 995.5 - - - - - - - - -
03/01:40pm 19.3 NW 19 22 995.5 - - - - - - - - -
03/01:30pm 19.4 NW 20 23 995.9 - - - - - - - - -
03/01:20pm 19.5 NW 20 25 996.2 - - - - - - - - -
03/01:10pm 19.3 NW 22 25 996.2 - - - - - - - - -
03/01:00pm 19.0 NNW 17 24 996.3 - - - - - - - - -
03/12:50pm 19.1 NNW 15 20 996.4 - - - - - - - - -
03/12:40pm 19.2 NNW 18 22 996.5 - - - - - - - - -
03/12:30pm 19.2 NNW 22 26 996.6 - - - - - - - - -
03/12:20pm 19.2 NW 24 27 996.7 - - - - - - - - -
03/12:10pm 19.2 NW 23 27 997.0 - - - - - - - - -
03/12:00pm 19.3 NW 23 28 997.7 - - - - - - - - -
03/11:50am 19.2 NW 23 27 997.7 - - - - - - - - -
03/11:40am 19.2 NW 24 29 997.9 - - - - - - - - -
03/11:30am 19.2 NW 26 30 997.9 - - - - - - - - -
03/11:20am 19.1 NW 27 31 997.9 - - - - - - - - -
03/11:10am 19.1 NW 25 30 998.2 - - - - - - - - -
03/11:00am 19.2 NW 25 30 998.6 - - - - - - - - -
03/10:50am 19.1 NW 25 30 999.1 - - - - - - - - -
03/10:40am 19.1 NW 25 29 999.3 - - - - - - - - -
03/10:30am 18.8 NW 23 28 999.4 - - - - - - - - -
03/10:20am 18.7 NNW 18 23 999.7 - - - - - - - - -
03/10:10am 18.8 NNW 21 25 999.9 - - - - - - - - -
03/10:00am 18.8 NW 24 29 1000.1 - - - - - - - - -
03/09:50am 18.7 NW 22 27 1000.3 - - - - - - - - -
03/09:40am 18.4 NNW 16 22 1000.4 - - - - - - - - -
03/09:30am 18.5 N 20 25 1000.2 - - - - - - - - -
03/09:20am 18.5 NNW 22 30 1000.1 - - - - - - - - -
03/09:10am 18.4 NNW 21 28 1000.4 - - - - - - - - -
03/09:00am 18.1 N 19 26 1000.8 - - - - - - - - -
03/08:50am 18.1 N 19 24 1001.1 - - - - - - - - -
03/08:40am 18.3 N 19 25 1001.4 - - - - - - - - -
03/08:30am 18.3 NNW 19 25 1001.6 - - - - - - - - -
03/08:20am 18.3 NNW 20 28 1001.7 - - - - - - - - -
03/08:10am 18.3 NNW 23 27 1001.6 - - - - - - - - -
03/08:00am 18.4 NNW 23 29 1001.6 - - - - - - - - -
03/07:50am 18.3 NW 23 29 1001.6 - - - - - - - - -
03/07:40am 18.2 NW 21 27 1001.7 - - - - - - - - -
03/07:30am 18.0 NNW 18 23 1001.9 - - - - - - - - -
03/07:20am 17.8 N 17 22 1002.1 - - - - - - - - -
03/07:10am 17.6 N 16 20 1002.3 - - - - - - - - -
03/07:00am 17.6 N 17 22 1002.3 - - - - - - - - -
03/06:50am 17.7 NNW 18 23 1002.3 - - - - - - - - -
03/06:40am 17.6 NNW 19 26 1002.4 - - - - - - - - -
03/06:30am 17.5 NNW 20 26 1002.4 - - - - - - - - -
03/06:20am 17.3 NW 20 27 1002.5 - - - - - - - - -
03/06:10am 17.2 NNW 18 24 1002.6 - - - - - - - - -
03/05:50am 17.0 NNW 19 24 1002.7 - - - - - - - - -
03/05:40am 17.0 NNW 19 23 1002.7 - - - - - - - - -
03/05:30am 16.9 NNW 20 24 1002.7 - - - - - - - - -
03/05:20am 16.8 NNW 17 25 1002.8 - - - - - - - - -
03/05:10am 16.8 NNW 18 23 1002.9 - - - - - - - - -
03/05:00am 16.7 NNW 19 22 1003.1 - - - - - - - - -
03/04:50am 16.7 NNW 18 24 1003.2 - - - - - - - - -
03/04:40am 16.6 NNW 20 25 1003.3 - - - - - - - - -
03/04:30am 16.7 NNW 20 25 1003.4 - - - - - - - - -
03/04:20am 16.7 NNW 18 23 1003.5 - - - - - - - - -
03/04:10am 16.7 NNW 18 25 1003.7 - - - - - - - - -
03/04:00am 16.7 NNW 20 24 1003.7 - - - - - - - - -
03/03:50am 16.7 NNW 21 26 1003.8 - - - - - - - - -
03/03:40am 16.7 NNW 22 28 1003.8 - - - - - - - - -
03/03:30am 16.6 NNW 21 26 1003.7 - - - - - - - - -
03/03:20am 16.5 NNW 20 25 1003.8 - - - - - - - - -
03/03:10am 16.5 NNW 19 24 1003.9 - - - - - - - - -
03/03:00am 16.5 NNW 19 24 1004.0 - - - - - - - - -
03/02:50am 16.6 NNW 19 24 1004.1 - - - - - - - - -
03/02:40am 16.7 NW 21 25 1004.2 - - - - - - - - -
03/02:30am 16.6 NW 23 27 1004.2 - - - - - - - - -
03/02:20am 16.5 NW 21 27 1004.4 - - - - - - - - -
03/02:10am 16.5 NW 20 25 1004.6 - - - - - - - - -
03/02:00am 16.5 NW 20 25 1004.7 - - - - - - - - -
03/01:50am 16.4 NW 20 24 1004.8 - - - - - - - - -
03/01:40am 16.4 NW 20 24 1004.9 - - - - - - - - -
03/01:30am 16.3 NW 19 24 1005.1 - - - - - - - - -
03/01:20am 16.1 NNW 18 21 1005.2 - - - - - - - - -
03/01:10am 16.2 NNW 17 20 1005.4 - - - - - - - - -
03/01:00am 16.1 NNW 17 21 1005.6 - - - - - - - - -
03/12:50am 16.1 NNW 18 21 1005.7 - - - - - - - - -
03/12:40am 16.2 NNW 18 23 1005.8 - - - - - - - - -
03/12:30am 16.2 NNW 16 21 1006.0 - - - - - - - - -
03/12:20am 16.2 NNW 17 20 1006.1 - - - - - - - - -
03/12:10am 16.3 NNW 17 22 1006.2 - - - - - - - - -
03/12:00am 16.3 NNW 18 22 1006.2 - - - - - - - - -
 
Date/Time
EST
Temp

°C
Wind Pressure Rain
since 9am
mm
Weather Cloud Vis
km
Sea
Height
m
Swell
Dir
 
Speed
knots
Gust
knots
hPa Trend Height
m
Period
s
Dir
02/11:50pm 16.3 NNW 19 23 1006.2 - - - - - - - - -
02/11:40pm 16.4 NW 19 24 1006.3 - - - - - - - - -
02/11:30pm 16.4 NW 20 24 1006.5 - - - - - - - - -
02/11:20pm 16.4 NW 21 25 1006.6 - - - - - - - - -
02/11:10pm 16.4 NW 22 27 1006.8 - - - - - - - - -
02/11:00pm 16.6 NW 21 25 1007.0 - - - - - - - - -
02/10:50pm 16.6 NW 19 24 1007.2 - - - - - - - - -
02/10:40pm 16.5 NW 19 22 1007.2 - - - - - - - - -
02/10:30pm 16.5 NW 19 21 1007.3 - - - - - - - - -

Other Formats:

Comma delimited format used in spreadsheet applications
http://www.bom.gov.au/fwo/IDV60701/IDV60701.55039.axf

JavaScript Object Notation format (JSON) in row-major order
http://www.bom.gov.au/fwo/IDV60701/IDV60701.55039.json